Weather History for Eastsound, WA

Change the Weather History Date:

Friday, October 26, 2012

  Actual Average (KBLI) Record (KBLI)
Temperature  
Mean Temperature 45 °F 48 °F  
Max Temperature 46 °F 55 °F 67 °F (1965)
Min Temperature 44 °F 40 °F 28 °F (1954)
Degree Days  
Heating Degree Days 20 17  
Month to date heating degree days 381  
Cooling Degree Days 0 0  
Month to date cooling degree days 0  
Year to date cooling degree days 42  
Moisture  
Dew Point 41 °F    
Average Humidity 85    
Maximum Humidity 100    
Minimum Humidity 71    
Precipitation  
Precipitation 0.02 in 0.16 in 1.72 in (1986)
Month to date precipitation 2.88  
Year to date precipitation 25.01  
Sea Level Pressure  
Sea Level Pressure 30.13 in    
Wind  
Wind Speed 5 mph (ENE)    
Max Wind Speed 9 mph    
Max Gust Speed -    
Visibility 8 miles    
Events Rain    
T = Trace of Precipitation, MM = Missing Value Source: NWS Daily Summary

Daily Weather History Graph

Daily Weather History Graph

Search for Another Location

Airport:

Trip Planner

Search our weather history database for the weather conditions in past years. The results will help you decide how hot, cold, wet, or windy it might be!

Date:

Astronomy

Oct. 26, 2012 Rise Set
Actual Time 7:49 AM PDT 6:00 PM PDT
Civil Twilight 7:17 AM PDT 6:33 PM PDT
Nautical Twilight 6:40 AM PDT 7:09 PM PDT
Astronomical Twilight 6:03 AM PDT 7:46 PM PDT
Moon 4:28 PM PDT (10/26) 4:39 AM PDT (10/26)
Length of Visible Light 11h 15m
Length of Day
10h 10m
Waxing Gibbous, 91% of the Moon is Illuminated
Oct 26
Waxing Gibbous
Oct 29
Full
Nov 6
Last Quarter
Nov 13
New
Nov 20
First Quarter

Hourly Weather History & Observations

Time (PDT) Temp. Windchill Dew Point Humidity Pressure Visibility Wind Dir Wind Speed Gust Speed Precip Events Conditions
12:15 AM 46.4 °F 43.5 °F 42.8 °F 87% 30.32 in 10.0 mi NE 5.8 mph - N/A   Scattered Clouds
12:35 AM 46.4 °F 43.5 °F 41.0 °F 81% 30.30 in 10.0 mi ENE 5.8 mph - N/A   Mostly Cloudy
12:55 AM 46.4 °F 43.5 °F 41.0 °F 81% 30.29 in 10.0 mi ENE 5.8 mph - N/A   Partly Cloudy
1:35 AM 46.4 °F - 41.0 °F 81% 30.28 in 10.0 mi Calm Calm - N/A   Clear
1:55 AM 46.4 °F 42.9 °F 41.0 °F 81% 30.26 in 10.0 mi NE 6.9 mph - N/A   Partly Cloudy
2:15 AM 46.4 °F 45.2 °F 39.2 °F 76% 30.27 in 10.0 mi NNE 3.5 mph - N/A   Partly Cloudy
2:35 AM 44.6 °F 42.2 °F 39.2 °F 81% 30.27 in 10.0 mi North 4.6 mph - N/A   Clear
2:55 AM 46.4 °F 45.2 °F 39.2 °F 76% 30.27 in 10.0 mi NNE 3.5 mph - N/A   Clear
3:15 AM 46.4 °F - 39.2 °F 76% 30.26 in 10.0 mi Calm Calm - N/A   Partly Cloudy
3:35 AM 46.4 °F 42.9 °F 39.2 °F 76% 30.25 in 10.0 mi NE 6.9 mph - N/A   Scattered Clouds
3:55 AM 46.4 °F 43.5 °F 37.4 °F 71% 30.24 in 10.0 mi NNE 5.8 mph - N/A   Scattered Clouds
4:15 AM 46.4 °F 44.3 °F 37.4 °F 71% 30.23 in 10.0 mi NE 4.6 mph - N/A   Clear
4:35 AM 46.4 °F 42.9 °F 37.4 °F 71% 30.23 in 10.0 mi NE 6.9 mph - N/A   Scattered Clouds
4:55 AM 46.4 °F 43.5 °F 37.4 °F 71% 30.22 in 10.0 mi ENE 5.8 mph - N/A   Partly Cloudy
5:15 AM 46.4 °F 42.4 °F 37.4 °F 71% 30.21 in 10.0 mi ENE 8.1 mph - N/A   Clear
5:35 AM 46.4 °F 42.9 °F 37.4 °F 71% 30.20 in 10.0 mi NE 6.9 mph - N/A   Clear
5:55 AM 46.4 °F 45.2 °F 37.4 °F 71% 30.19 in 10.0 mi ENE 3.5 mph - N/A   Clear
6:15 AM 46.4 °F - 37.4 °F 71% 30.19 in 10.0 mi Calm Calm - N/A   Clear
6:35 AM 46.4 °F 43.5 °F 37.4 °F 71% 30.18 in 10.0 mi ENE 5.8 mph - N/A   Clear
6:55 AM 46.4 °F 43.5 °F 37.4 °F 71% 30.17 in 10.0 mi ENE 5.8 mph - N/A   Partly Cloudy
7:15 AM 46.4 °F 42.4 °F 37.4 °F 71% 30.16 in 10.0 mi ENE 8.1 mph - N/A   Clear
7:35 AM 46.4 °F 43.5 °F 37.4 °F 71% 30.16 in 10.0 mi ENE 5.8 mph - N/A   Clear
7:55 AM 46.4 °F 42.9 °F 37.4 °F 71% 30.16 in 10.0 mi ENE 6.9 mph - N/A   Clear
8:15 AM 46.4 °F 44.3 °F 37.4 °F 71% 30.15 in 10.0 mi ENE 4.6 mph - N/A   Scattered Clouds
8:35 AM 46.4 °F 44.3 °F 37.4 °F 71% 30.14 in 10.0 mi East 4.6 mph - N/A   Scattered Clouds
8:55 AM 46.4 °F 42.9 °F 39.2 °F 76% 30.15 in 10.0 mi NE 6.9 mph - N/A   Partly Cloudy
9:15 AM 46.4 °F 42.4 °F 39.2 °F 76% 30.14 in 10.0 mi ENE 8.1 mph - N/A   Mostly Cloudy
9:35 AM 46.4 °F 41.9 °F 39.2 °F 76% 30.14 in 10.0 mi NE 9.2 mph - N/A   Scattered Clouds
9:55 AM 44.6 °F 40.2 °F 39.2 °F 81% 30.15 in 10.0 mi ENE 8.1 mph - N/A Rain Light Rain
10:15 AM 44.6 °F 40.7 °F 39.2 °F 81% 30.17 in 7.0 mi NE 6.9 mph - N/A Rain Light Rain
10:35 AM 44.6 °F 40.2 °F 41.0 °F 87% 30.17 in 5.0 mi East 8.1 mph - N/A Rain Light Rain
10:55 AM 44.6 °F 42.2 °F 41.0 °F 87% 30.18 in 2.5 mi SE 4.6 mph - N/A Rain Rain
11:15 AM 44.6 °F 42.2 °F 41.0 °F 87% 30.18 in 3.0 mi ENE 4.6 mph - 0.02 in Rain Rain
11:35 AM 44.6 °F - 41.0 °F 87% 30.17 in 5.0 mi Calm Calm - 0.02 in Rain Light Rain
11:55 AM 44.6 °F 42.2 °F 42.8 °F 93% 30.15 in 6.0 mi NE 4.6 mph - 0.02 in Rain Light Rain
12:15 PM 44.6 °F 43.1 °F 42.8 °F 93% 30.14 in 10.0 mi ENE 3.5 mph - N/A   Mostly Cloudy
12:35 PM 44.6 °F 41.4 °F 42.8 °F 93% 30.14 in 10.0 mi NE 5.8 mph - N/A   Overcast
12:55 PM 44.6 °F 43.1 °F 42.8 °F 93% 30.12 in 10.0 mi East 3.5 mph - N/A   Overcast
1:15 PM 46.4 °F 44.3 °F 42.8 °F 87% 30.11 in 10.0 mi East 4.6 mph - N/A   Overcast
1:35 PM 46.4 °F 42.9 °F 41.0 °F 81% 30.11 in 10.0 mi East 6.9 mph - N/A   Mostly Cloudy
1:55 PM 46.4 °F 43.5 °F 41.0 °F 81% 30.11 in 10.0 mi East 5.8 mph - N/A   Overcast
2:15 PM 46.4 °F 43.5 °F 39.2 °F 76% 30.11 in 9.0 mi ESE 5.8 mph - N/A Rain Light Rain
2:35 PM 46.4 °F 45.2 °F 41.0 °F 81% 30.11 in 6.0 mi East 3.5 mph - N/A Rain Light Rain
3:15 PM 46.4 °F 42.4 °F 41.0 °F 81% 30.08 in 10.0 mi ENE 8.1 mph - N/A Rain Light Rain
3:35 PM 46.4 °F 42.9 °F 41.0 °F 81% 30.08 in 10.0 mi ESE 6.9 mph - N/A   Overcast
3:55 PM 44.6 °F 41.4 °F 41.0 °F 87% 30.08 in 8.0 mi ENE 5.8 mph - N/A   Overcast
4:15 PM 44.6 °F 41.4 °F 41.0 °F 87% 30.07 in 7.0 mi East 5.8 mph - N/A Rain Light Rain
4:35 PM 44.6 °F 40.7 °F 42.8 °F 93% 30.07 in 5.0 mi ENE 6.9 mph - N/A   Overcast
4:55 PM 44.6 °F 42.2 °F 44.6 °F 100% 30.06 in 9.0 mi ENE 4.6 mph - N/A   Overcast
5:15 PM 44.6 °F 42.2 °F 44.6 °F 100% 30.06 in 10.0 mi ENE 4.6 mph - N/A   Overcast
5:35 PM 44.6 °F 41.4 °F 44.6 °F 100% 30.06 in 10.0 mi ENE 5.8 mph - N/A   Overcast
5:55 PM 46.4 °F 44.3 °F 42.8 °F 87% 30.06 in 10.0 mi ENE 4.6 mph - N/A Rain Light Rain
6:15 PM 44.6 °F 41.4 °F 44.6 °F 100% 30.05 in 9.0 mi ENE 5.8 mph - N/A Rain Light Rain
6:35 PM 44.6 °F 42.2 °F 44.6 °F 100% 30.05 in 5.0 mi ENE 4.6 mph - N/A Rain Light Rain
6:55 PM 44.6 °F 43.1 °F 44.6 °F 100% 30.04 in 6.0 mi NE 3.5 mph - N/A Rain Light Rain
7:15 PM 44.6 °F 42.2 °F 44.6 °F 100% 30.05 in 7.0 mi NE 4.6 mph - N/A Rain Light Rain
7:35 PM 44.6 °F 41.4 °F 44.6 °F 100% 30.05 in 10.0 mi NE 5.8 mph - N/A   Overcast
7:55 PM 44.6 °F - 44.6 °F 100% 30.04 in 5.0 mi Calm Calm - N/A Rain Light Rain
8:35 PM 44.6 °F 43.1 °F 44.6 °F 100% 30.04 in 3.0 mi ENE 3.5 mph - N/A Rain Light Rain
8:55 PM 44.6 °F 41.4 °F 44.6 °F 100% 30.03 in 7.0 mi NE 5.8 mph - N/A Rain Light Rain
9:15 PM 44.6 °F 42.2 °F 44.6 °F 100% 30.03 in 10.0 mi NNE 4.6 mph - N/A   Overcast
9:35 PM 44.6 °F 43.1 °F 44.6 °F 100% 30.02 in 3.0 mi ENE 3.5 mph - N/A Rain Rain
9:55 PM 44.6 °F 43.1 °F 44.6 °F 100% 30.02 in 2.5 mi ENE 3.5 mph - N/A Rain Light Rain
10:15 PM 44.6 °F 42.2 °F 44.6 °F 100% 30.02 in 4.0 mi NE 4.6 mph - N/A Rain Light Rain
10:35 PM 44.6 °F 42.2 °F 44.6 °F 100% 30.02 in 4.0 mi NE 4.6 mph - N/A Rain Light Rain
10:55 PM 44.6 °F 41.4 °F 44.6 °F 100% 30.01 in 3.0 mi ENE 5.8 mph - N/A Rain Light Rain
11:15 PM 44.6 °F - 44.6 °F 100% 30.01 in 2.5 mi Calm Calm - N/A Rain Rain
11:35 PM 44.6 °F 41.4 °F 44.6 °F 100% 30.01 in 3.0 mi NE 5.8 mph - N/A Rain Light Rain
11:55 PM 44.6 °F 42.2 °F 44.6 °F 100% 30.00 in 7.0 mi NE 4.6 mph - N/A   Overcast